Voltar ao catálogo

STARLINK-33547

AtivoComunicaçõesVLEO
NORAD 62283·PAYLOAD·🇺🇸 United States

Lançado Dec 8, 2024 de Cape Canaveral Space Force Station

Loading…

Próximas Passagens (próximas 24 horas)

TLE

AtualizadoSource: CelesTrak SupGP

Época: Sep 15, 2026, 03:32 UTC

1 62283C 24237S   26258.14770833 -.00051795  00000+0 -18763-2 0  2588
2 62283  43.0018 215.4950 0001346 272.0860  70.5580 15.27598700    14

Acompanhe STARLINK-33547 em tempo real com AllMySat

Download on the App Store